Tekamah, NE

5:03 AM CST on January 19, 2017 (GMT -0600)
Tekamah

Weather History for KTQE - November, 2012

Change the Weather History Date:

Monday, November 19, 2012

  Actual Average Record
Temperature  
Mean Temperature 49 °F -  
Max Temperature 61 °F 47 °F 71 °F (1949)
Min Temperature 37 °F 27 °F 8 °F (1955)
Degree Days  
Heating Degree Days 16    
Moisture  
Dew Point 36 °F    
Average Humidity 64    
Maximum Humidity 79    
Minimum Humidity 44    
Precipitation  
Precipitation 0.00 in - - ()
Sea Level Pressure  
Sea Level Pressure 30.04 in    
Wind  
Wind Speed 9 mph (West)    
Max Wind Speed 16 mph    
Max Gust Speed 21 mph    
Visibility 8 miles    
Events      
Averages and records for this station are not official NWS values.
T = Trace of Precipitation, MM = Missing Value Source: NWS Daily Summary

Daily Weather History Graph

Daily Weather History Graph

Search for Another Location

Airport or City:

Trip Planner

Search our weather history database for the weather conditions in past years. The results will help you decide how hot, cold, wet, or windy it might be!

Date:

Astronomy

Nov. 19, 2012 Rise Set
Actual Time 7:19 AM CST 5:00 PM CST
Civil Twilight 6:49 AM CST 5:30 PM CST
Nautical Twilight 6:15 AM CST 6:04 PM CST
Astronomical Twilight 5:42 AM CST 6:37 PM CST
Moon 12:20 PM CST 11:31 PM CST
Length of Visible Light 10h 41m
Length of Day
9h 41m
Waxing Crescent, 41% of the Moon is Illuminated
Nov 19
Waxing Crescent
Nov 20
First Quarter
Nov 28
Full
Dec 6
Last Quarter
Dec 13
New

Hourly Weather History & Observations

Time (CST) Temp. Windchill Dew Point Humidity Pressure Visibility Wind Dir Wind Speed Gust Speed Precip Events Conditions
12:54 AM 48.9 °F - 35.1 °F 59% 30.01 in 10.0 mi SSE 8.1 mph - N/A   Clear
1:54 AM 46.0 °F 41.0 °F 35.1 °F 66% 30.00 in 10.0 mi SSE 10.4 mph - N/A   Clear
2:54 AM 45.0 °F 39.7 °F 34.0 °F 65% 30.01 in 10.0 mi SE 10.4 mph - N/A   Clear
3:54 AM 42.1 °F 39.2 °F 34.0 °F 73% 30.00 in 10.0 mi ESE 4.6 mph - N/A   Clear
4:54 AM 39.9 °F 34.5 °F 32.0 °F 73% 30.00 in 9.0 mi South 8.1 mph - N/A   Clear
5:54 AM 39.0 °F 32.3 °F 32.0 °F 76% 29.99 in 8.0 mi SE 10.4 mph - N/A   Clear
6:54 AM 37.9 °F 30.9 °F 32.0 °F 79% 29.99 in 8.0 mi SE 10.4 mph - N/A   Clear
7:54 AM 39.0 °F 32.8 °F 33.1 °F 79% 30.00 in 6.0 mi SE 9.2 mph - N/A   Haze
8:54 AM 48.0 °F - 37.9 °F 68% 30.01 in 7.0 mi South 12.7 mph - N/A   Clear
9:54 AM 51.1 °F - 37.9 °F 61% 30.01 in 7.0 mi SW 9.2 mph - N/A   Clear
10:54 AM 53.1 °F - 37.0 °F 55% 30.03 in 7.0 mi Variable 6.9 mph - N/A   Clear
11:54 AM 55.9 °F - 37.9 °F 51% 30.02 in 8.0 mi West 8.1 mph - N/A   Clear
12:54 PM 60.1 °F - 37.9 °F 44% 30.01 in 10.0 mi NW 9.2 mph - N/A   Clear
1:54 PM 61.0 °F - 39.0 °F 44% 30.01 in 10.0 mi NW 16.1 mph 20.7 mph N/A   Clear
2:54 PM 61.0 °F - 39.0 °F 44% 30.02 in 9.0 mi WNW 12.7 mph - N/A   Clear
3:54 PM 59.0 °F - 39.0 °F 48% 30.04 in 9.0 mi NW 12.7 mph - N/A   Clear
4:54 PM 53.1 °F - 37.0 °F 55% 30.06 in 8.0 mi NW 5.8 mph - N/A   Clear
5:54 PM 48.0 °F - 36.0 °F 63% 30.08 in 9.0 mi West 5.8 mph - N/A   Clear
6:54 PM 46.9 °F - 36.0 °F 66% 30.10 in 9.0 mi NW 9.2 mph - N/A   Clear
7:54 PM 43.0 °F - 34.0 °F 71% 30.11 in 8.0 mi Calm Calm - N/A   Clear
8:54 PM 45.0 °F 43.5 °F 36.0 °F 71% 30.12 in 7.0 mi WNW 3.5 mph - N/A   Clear
9:54 PM 43.0 °F 38.2 °F 35.1 °F 74% 30.12 in 7.0 mi NW 8.1 mph - N/A   Clear
10:54 PM 42.1 °F 39.2 °F 34.0 °F 73% 30.12 in 8.0 mi NW 4.6 mph - N/A   Clear
11:54 PM 39.0 °F 33.4 °F 33.1 °F 79% 30.13 in 7.0 mi NW 8.1 mph - N/A   Clear